[[{"header":{"parameterUnit":"m.s-1","parameterCategory":1,"la1":30.2991,"la2":30.254,"lo1":-89.0895,"lo2":-89.0444,"dx":0.0017,"dy":0.0017,"nx":28,"ny":28,"refTime":"2023-01-30T15:00:00:Z","depth":0,"parameterNumber":2,"parameterNumberName":"U-component_of_WINDS"},"data":[0,0,0,0,0,0,0,0,0,0,0,0,0,0,0,0,0,0,0,0,0,0,0,0,0,0,0,0,0,0,0,0,0,0,0,0,0,0,0,0,0,0,0,0,0,0,0,0,0,0,0,0,0,0,0,0,0,0,0.275,0.275,0,0.2773,0.2773,0.2773,0.278,0.278,0.278,0.278,0.2803,0.2804,0.2804,0,0,0,0,0,0,0,0,0,0,0,0,0,0.2714,0.2715,0.275,0.275,0.275,0.2773,0.2773,0.2773,0.278,0.278,0.278,0.278,0.2803,0.2803,0.2804,0,0,0,0,0,0,0,0,0,0,0,0,0,0.2733,0.2715,0.275,0.2757,0.2758,0.2773,0.2773,0.2773,0.278,0.278,0.278,0.278,0.2802,0.2803,0.2804,0.2814,0,0,0.2808,0.2808,0,0,0,0,0,0,0,0,0.2731,0.2734,0.2755,0.2756,0.2757,0.2774,0.2769,0.2787,0.278,0.2772,0.278,0.278,0.2793,0.2795,0.28,0.2815,0.2816,0.2808,0.2808,0.2809,0.2809,0,0,0,0,0,0,0,0.273,0.2733,0.2759,0.2756,0.2757,0.2759,0.2762,0.2772,0.2783,0.2772,0.2773,0.2776,0.2794,0.2799,0.28,0.2816,0.2808,0.2809,0.2809,0.281,0.2844,0.2844,0,0,0,0,0,0,0.2728,0.2732,0.2758,0.276,0.2744,0.276,0.2763,0.2768,0.2783,0.2785,0.2776,0.2776,0.2797,0.2799,0.2801,0.2815,0.2809,0.281,0.281,0.2843,0.2844,0.2844,0,0,0,0,0,0,0.2727,0.273,0.2757,0.2746,0.275,0.2761,0.2767,0.2769,0.2774,0.2785,0.2787,0.2779,0.2797,0.2799,0.2811,0.2816,0.281,0.2811,0.2843,0.2843,0.2844,0.2842,0,0,0,0,0,0,0.2726,0.273,0.2733,0.2746,0.275,0.2767,0.2767,0.277,0.2776,0.2776,0.2789,0.2791,0.2797,0.281,0.2812,0.2817,0.2812,0.2843,0.2843,0.2844,0.2841,0.2842,0.2842,0,0,0,0,0,0.2725,0.2731,0.2733,0.2736,0.2754,0.2767,0.2769,0.2777,0.2776,0.278,0.2788,0.279,0.2815,0.2811,0.2814,0.2819,0.2842,0.2843,0.2844,0.2841,0.2842,0.2842,0,0,0,0,0,0,0.2717,0.2732,0.2735,0.2746,0.2755,0.2768,0.2773,0.2777,0.2786,0.2786,0.2795,0.2797,0.2809,0.2815,0.281,0.283,0.2829,0.283,0.2826,0.2827,0.2827,0.2826,0.2813,0,0,0,0,0,0.2717,0.2725,0.2738,0.2746,0.2751,0.2761,0.2767,0.2772,0.2782,0.2786,0.2794,0.2804,0.2815,0.2821,0.2831,0.2842,0.2846,0.2848,0.2848,0.2849,0.285,0.2859,0.286,0.2846,0.2846,0.2846,0,0,0.2716,0.2725,0.273,0.2745,0.2753,0.2763,0.2765,0.2774,0.2782,0.2787,0.28,0.2806,0.2818,0.283,0.2836,0.2836,0.2855,0.2849,0.285,0.285,0.286,0.2861,0.2862,0.2846,0.2846,0.2846,0,0,0.2719,0.2727,0.2736,0.2744,0.2756,0.2763,0.2766,0.2779,0.2784,0.2796,0.2802,0.2811,0.2828,0.2836,0.2843,0.2853,0.2856,0.2856,0.2859,0.2867,0.2869,0.287,0.2875,0.2876,0.2857,0.2857,0.2857,0,0.2717,0.2731,0.2739,0.275,0.2757,0.2763,0.2773,0.2781,0.2795,0.2801,0.28,0.2823,0.2831,0.2847,0.285,0.2854,0.2858,0.2854,0.2868,0.2869,0.287,0.2875,0.2877,0.2857,0.2857,0.2857,0.2857,0,0.2728,0.2738,0.2744,0.2759,0.2767,0.2777,0.2787,0.2795,0.2799,0.2807,0.2821,0.2831,0.2844,0.2848,0.2852,0.2866,0.2865,0.2866,0.2865,0.2871,0.2876,0.2878,0.2857,0.2857,0.2857,0.2857,0,0,0.2726,0.2748,0.275,0.2758,0.2773,0.2782,0.2793,0.2806,0.2813,0.2823,0.2834,0.2849,0.2851,0.2858,0.2864,0.2871,0.2881,0.2872,0.2872,0.2874,0.2898,0.2898,0.29,0.2883,0.2884,0.2884,0.2898,0,0.2733,0.2753,0.2761,0.2777,0.2788,0.2796,0.2806,0.2817,0.2824,0.2835,0.2844,0.2855,0.2856,0.2861,0.2869,0.2878,0.2886,0.2877,0.2894,0.2894,0.2892,0.2903,0.2902,0.2914,0.29,0.29,0.29,0,0.2743,0.2755,0.2772,0.2789,0.2793,0.2802,0.2816,0.2826,0.2839,0.2845,0.2855,0.286,0.2873,0.2871,0.289,0.2884,0.2892,0.2898,0.2898,0.2901,0.2898,0.2906,0.2918,0.2921,0.2903,0.2903,0.2903,0,0.2741,0.2762,0.2776,0.2782,0.2801,0.2807,0.2816,0.2829,0.2837,0.285,0.2856,0.287,0.2877,0.2889,0.2899,0.2896,0.2917,0.2915,0.2923,0.2923,0.2927,0.2927,0.2942,0.2931,0.2931,0.2931,0.2931,0,0.2748,0.2759,0.2776,0.2784,0.2797,0.2808,0.282,0.2829,0.2841,0.2853,0.286,0.287,0.2882,0.2895,0.2902,0.2918,0.2921,0.2927,0.2929,0.2927,0.2926,0.2932,0.2932,0.2931,0.2931,0.2931,0.2931,0,0.2749,0.276,0.2776,0.2794,0.2798,0.2807,0.2823,0.2832,0.2841,0.2855,0.2859,0.2873,0.2888,0.29,0.2919,0.2924,0.2941,0.2943,0.2937,0.2938,0.2946,0.2946,0.2966,0.297,0.2955,0.2955,0.2955,0,0.2752,0.2761,0.2781,0.2789,0.2797,0.281,0.282,0.2831,0.2841,0.2858,0.2866,0.2881,0.2895,0.2919,0.2931,0.2946,0.2949,0.2955,0.2951,0.295,0.2951,0.2951,0.2953,0.2956,0.2956,0.2956,0.2956,0,0.2759,0.2765,0.2778,0.2794,0.2805,0.2818,0.283,0.2837,0.2851,0.2862,0.2878,0.2888,0.2909,0.2925,0.2942,0.2951,0.2957,0.2957,0.296,0.2958,0.2955,0.2959,0.294,0.2957,0.2957,0.2957,0.2957,0.2957,0.2762,0.2771,0.2787,0.2802,0.2813,0.2826,0.2836,0.2847,0.2861,0.2879,0.2885,0.2903,0.2918,0.2942,0.2952,0.2966,0.2966,0.2969,0.297,0.2971,0.2972,0.2953,0.2969,0.2969,0.2969,0.2969,0.2969,0,0.277,0.2781,0.2795,0.2813,0.2826,0.283,0.2846,0.2856,0.2871,0.2885,0.2899,0.2919,0.2935,0.295,0.2967,0.2976,0.2979,0.298,0.298,0.2983,0.297,0.2967,0.2978,0.2978,0.2978,0.2978,0.2978,0.2978,0.2775,0.2791,0.28,0.2823,0.2834,0.2851,0.286,0.2872,0.2884,0.2906,0.292,0.293,0.2945,0.2964,0.298,0.2984,0.299,0.2991,0.2996,0.2984,0.2983,0.2982,0.2979,0.2992,0.2992,0.3007,0.3007,0.3008]},{"header":{"parameterUnit":"m.s-1","parameterCategory":1,"la1":30.2991,"la2":30.254,"lo1":-89.0895,"lo2":-89.0444,"dx":0.0017,"dy":0.0017,"nx":28,"ny":28,"refTime":"2023-01-30T15:00:00:Z","depth":0,"parameterNumber":3,"parameterNumberName":"V-component_of_WINDS"},"data":[0,0,0,0,0,0,0,0,0,0,0,0,0,0,0,0,0,0,0,0,0,0,0,0,0,0,0,0,0,0,0,0,0,0,0,0,0,0,0,0,0,0,0,0,0,0,0,0,0,0,0,0,0,0,0,0,0,0,1.9373,1.9374,0,1.9416,1.9417,1.9417,1.9421,1.9421,1.942,1.942,1.9459,1.9461,1.9462,0,0,0,0,0,0,0,0,0,0,0,0,0,1.9291,1.9292,1.9373,1.9374,1.9374,1.9416,1.9417,1.9417,1.9421,1.9421,1.942,1.942,1.9459,1.946,1.9462,0,0,0,0,0,0,0,0,0,0,0,0,0,1.9329,1.9293,1.9373,1.9382,1.9383,1.9416,1.9417,1.9417,1.9421,1.9421,1.942,1.9419,1.9458,1.946,1.9462,1.9489,0,0,1.9469,1.947,0,0,0,0,0,0,0,0,1.9327,1.9332,1.938,1.9381,1.9382,1.9413,1.9402,1.9441,1.9421,1.9406,1.942,1.9419,1.9444,1.9447,1.9457,1.9491,1.9493,1.9469,1.9471,1.9471,1.9472,0,0,0,0,0,0,0,1.9324,1.933,1.939,1.938,1.9382,1.9382,1.9386,1.9409,1.9428,1.9408,1.9408,1.9413,1.9444,1.9454,1.9457,1.9493,1.9469,1.9471,1.9472,1.9473,1.9551,1.9551,0,0,0,0,0,0,1.9321,1.9328,1.9389,1.9391,1.9353,1.9384,1.9389,1.9404,1.9428,1.9431,1.9414,1.9413,1.9451,1.9455,1.9459,1.9491,1.9471,1.9473,1.9475,1.955,1.9551,1.9552,0,0,0,0,0,0,1.9319,1.9326,1.9387,1.936,1.9368,1.9386,1.9402,1.9405,1.9415,1.9433,1.9436,1.9421,1.9451,1.9456,1.9482,1.9493,1.9474,1.9476,1.9549,1.955,1.9551,1.9557,0,0,0,0,0,0,1.9316,1.9325,1.9337,1.936,1.9369,1.941,1.9403,1.9406,1.9419,1.9419,1.944,1.9443,1.9451,1.9478,1.9484,1.9495,1.9478,1.9548,1.955,1.9551,1.9555,1.9558,1.956,0,0,0,0,0,1.9314,1.9336,1.9337,1.9345,1.9384,1.9411,1.9416,1.9426,1.942,1.9431,1.9442,1.9442,1.9491,1.9481,1.9487,1.95,1.9547,1.9549,1.9551,1.9554,1.9557,1.956,0,0,0,0,0,0,1.9311,1.9339,1.9341,1.9372,1.9389,1.9412,1.9426,1.9428,1.9447,1.9445,1.9455,1.946,1.9485,1.9495,1.9484,1.9526,1.9518,1.9521,1.9519,1.9522,1.9524,1.9521,1.948,0,0,0,0,0,1.9314,1.9336,1.9358,1.9383,1.9392,1.9407,1.9419,1.9426,1.9443,1.945,1.9464,1.948,1.9499,1.9511,1.9529,1.9557,1.9561,1.9569,1.9571,1.9572,1.9574,1.9589,1.9593,1.9557,1.9557,1.9557,0,0,1.9321,1.9339,1.9351,1.9383,1.9397,1.9418,1.9413,1.9435,1.945,1.9453,1.9479,1.9489,1.9508,1.9535,1.9547,1.9543,1.9585,1.9575,1.9576,1.9577,1.9591,1.9595,1.9598,1.9558,1.9558,1.9558,0,0,1.9343,1.9359,1.9381,1.9396,1.9419,1.9429,1.9434,1.9457,1.9464,1.9491,1.9493,1.951,1.9543,1.9556,1.9567,1.9595,1.9595,1.96,1.9611,1.9625,1.9628,1.963,1.964,1.9643,1.9602,1.9602,1.9602,0,1.9348,1.938,1.9392,1.9414,1.9428,1.9433,1.9455,1.9468,1.9495,1.9503,1.9499,1.9541,1.9553,1.9583,1.959,1.9599,1.9604,1.9597,1.9627,1.9629,1.9632,1.9641,1.9644,1.9603,1.9603,1.9603,1.9603,0,1.9384,1.9407,1.9422,1.9449,1.9464,1.9486,1.95,1.9514,1.9518,1.9529,1.9555,1.9571,1.9592,1.96,1.9604,1.963,1.9627,1.9625,1.9617,1.9636,1.9644,1.9647,1.9604,1.9603,1.9603,1.9603,0,0,1.9405,1.944,1.9445,1.9458,1.9483,1.95,1.9521,1.9544,1.9555,1.9573,1.9591,1.9618,1.9617,1.9629,1.9635,1.9648,1.9668,1.9644,1.9644,1.9647,1.9697,1.9698,1.9702,1.9669,1.9669,1.967,1.9695,0,1.943,1.947,1.9482,1.9515,1.9536,1.9541,1.956,1.9577,1.9587,1.9605,1.9615,1.9635,1.9631,1.9639,1.9651,1.9663,1.9678,1.9661,1.9683,1.9684,1.9678,1.9706,1.9708,1.973,1.9698,1.9699,1.9699,0,1.9464,1.9484,1.952,1.9543,1.9552,1.9569,1.9591,1.9608,1.9627,1.9633,1.9647,1.9652,1.9673,1.9665,1.9694,1.9682,1.9692,1.9699,1.97,1.9702,1.9692,1.9708,1.9738,1.9741,1.9705,1.9704,1.9704,0,1.9474,1.9511,1.9537,1.9548,1.9576,1.9587,1.9599,1.9617,1.963,1.9649,1.9657,1.9677,1.9688,1.9703,1.9712,1.9706,1.974,1.9733,1.9745,1.9745,1.9751,1.9751,1.9783,1.9759,1.9759,1.9759,1.9759,0,1.95,1.9522,1.9543,1.9559,1.9583,1.9595,1.9618,1.963,1.9646,1.9664,1.967,1.9685,1.9698,1.9715,1.9722,1.9745,1.975,1.9754,1.9756,1.9754,1.9753,1.976,1.9758,1.976,1.976,1.9759,1.9759,0,1.9516,1.9531,1.956,1.9585,1.9591,1.9608,1.9628,1.9643,1.9654,1.9676,1.9681,1.9698,1.9718,1.973,1.9755,1.976,1.9785,1.9786,1.9779,1.9779,1.9791,1.979,1.9828,1.9833,1.9806,1.9807,1.9807,0,1.9531,1.9548,1.9575,1.9588,1.9601,1.9621,1.9635,1.9648,1.9661,1.9684,1.9696,1.9718,1.9735,1.9767,1.978,1.98,1.9801,1.9813,1.9804,1.9801,1.98,1.9799,1.9801,1.9814,1.9815,1.9815,1.9815,0,1.9556,1.9563,1.9584,1.9607,1.9624,1.9642,1.966,1.967,1.9685,1.97,1.9722,1.9736,1.9763,1.9783,1.9804,1.9814,1.9817,1.9818,1.9822,1.9819,1.9814,1.9817,1.9783,1.9817,1.9817,1.9816,1.9816,1.9816,1.9572,1.9588,1.9609,1.9632,1.9647,1.9664,1.968,1.9693,1.9712,1.9736,1.9742,1.9765,1.9782,1.9811,1.9822,1.9839,1.9836,1.9842,1.9843,1.9844,1.9844,1.9812,1.9842,1.9842,1.9842,1.9842,1.9842,0,1.9597,1.9612,1.9632,1.9658,1.9676,1.9679,1.9699,1.9713,1.9734,1.9751,1.9769,1.9794,1.9814,1.9829,1.9849,1.986,1.9862,1.9865,1.9864,1.9866,1.9846,1.984,1.9863,1.9863,1.9863,1.9863,1.9863,1.9863,1.9612,1.9639,1.9648,1.9682,1.9695,1.9719,1.9731,1.9746,1.976,1.9788,1.9805,1.9816,1.9832,1.9854,1.9872,1.9876,1.9882,1.9885,1.9889,1.987,1.9867,1.9865,1.986,1.9887,1.9887,1.9908,1.9908,1.9909]}]]